Regional Weather Roundup
Issued by NWS

Home | Current Version | Previous Version | Graphics & Text | Print | Product List | Glossary On
Versions: 1 2 3 4 5 6 7 8 9 10 11 12 13 14 15 16 17 18 19 20 21 22 23 24 25 26 27 28 29 30 31 32 33 34 35 36 37 38 39 40 41 42 43 44 45 46 47 48 49 50
000
ASUS45 KTFX 201619
RWRMT
MONTANA HOURLY WEATHER ROUNDUP
NATIONAL WEATHER SERVICE GREAT FALLS MT
1019 AM MDT MON OCT 20 2014

NOTE: "FAIR" INDICATES FEW OR NO CLOUDS BELOW 12000 FEET WITH NO
SIGNIFICANT WEATHER AND/OR OBSTRUCTIONS TO VISIBILITY.

* THESE STATIONS ARE NOT UNDER NWS QUALITY CONTROL. THEY DO NOT
   REPORT WEATHER SUCH AS PRECIPITATION OR FOG.

MTZ001>007-043-201700-
WEST OF THE DIVIDE
CITY           SKY/WX    TMP DP  RH WIND       PRES   REMARKS
KALISPELL      SUNNY     39  37  93 CALM      29.87R
MISSOULA       SUNNY     39  37  93 CALM      29.94S
BUTTE          SUNNY     39  30  70 CALM      30.03S
MULLAN PASS    SUNNY     54  30  40 N/A       29.91R
* ESSEX        N/A       36  32  85 E1         N/A
* LINCOLN      N/A       30  26  85 N/A        N/A
* LOOKOUT PASS N/A       37  37 100 SE2        N/A
* POLSON       N/A       42  42 100 N/A        N/A
* RONAN APT    SUNNY     41  39  93 N/A        N/A
* SEELEY LAKE  N/A       32  30  92 N/A        N/A
* THOMP F APT  SUNNY     53  29  40 NE1G7      N/A
$$

MTZ008-052>055-201700-
SOUTHWEST MONTANA
CITY           SKY/WX    TMP DP  RH WIND       PRES   REMARKS
BOZEMAN        SUNNY     46  34  63 SE3       30.00F
DILLON         SUNNY     48  27  44 S8        30.03R
W YELLOWSTONE  SUNNY     36  25  64 CALM      30.18R
* THREE FORKS  SUNNY     37  19  48 N/A        N/A
* BOULDER HILL N/A       47  25  42 S12        N/A
* MONIDA PASS  N/A       48  24  39 E5         N/A
* RAYNOLDS PAS N/A       42  20  41 SE4        N/A
* WHITEHALL    N/A       40  32  73 NW3        N/A
* WISE RIVER   N/A       30  25  82 NW3        N/A
$$

MTZ009>010-012-014-046-048-049-054-201700-
EAST SLOPES AND CENTRAL MONTANA
CITY           SKY/WX    TMP DP  RH WIND       PRES   REMARKS
CUT BANK       SUNNY     54  30  40 CALM      29.82S
GREAT FALLS    SUNNY     63  28  27 S17       29.86S
HELENA         SUNNY     43  34  71 CALM      29.97R
MALMSTROM AFB  SUNNY     61  32  34 SW12      29.88S
* CONRAD       SUNNY     55  36  49 S8         N/A
* DEARBORN     N/A       49  35  59 N/A        N/A
* EAST GLACIER N/A       60  29  31 W14        N/A
* MONARCH      N/A       54  25  33 S12        N/A
* PENDROY      N/A       57  35  44 SW7        N/A
* ROGERS PASS  N/A       52  27  38 E6G12      N/A
* SAINT MARY   N/A       56  30  37 S4         N/A
* SWEET GRASS  N/A       48  31  52 S13        N/A
* WHITE SULPH  N/A       56  34  44 NE3G10     N/A
$$

MTZ011-013-016-021-035-040-045-047-050-051-201700-
NORTH CENTRAL MONTANA
CITY           SKY/WX    TMP DP  RH WIND       PRES   REMARKS
HAVRE          SUNNY     45  39  80 CALM      29.84S
LEWISTOWN      SUNNY     59  36  42 SE5       29.92S
* CHINOOK      SUNNY     46  39  77 CALM      29.85R
* FORT BENTON  SUNNY     48  37  66 CALM      29.85S
* CHESTER      N/A       35  29  79 N1         N/A
* DENTON       N/A       58  37  46 S4         N/A
* GEYSER       N/A       67  37  33 SW12       N/A
* JUDITH GAP   N/A       62  36  38 S8         N/A
* LOMA         N/A       44  38  80 E3         N/A
$$

MTZ017>020-022>027-061-062-201700-
NORTHEAST MONTANA
CITY           SKY/WX    TMP DP  RH WIND       PRES   REMARKS
GLASGOW        SUNNY     54  39  57 SE16      29.86F
GLENDIVE       SUNNY     55  39  55 S7        29.95S
JORDAN         SUNNY     50  37  61 CALM      29.88F
SIDNEY         SUNNY     54  43  67 CALM      29.95F
WOLF POINT     SUNNY     50  39  66 E7        29.90F
* BEAVER HILL  N/A       61  39  44 SE15G22    N/A
* CIRCLE       N/A       60  44  56 S7         N/A
* LINDSAY DVD  N/A       54  39  57 SE13       N/A
* NAVAJO       N/A       52  38  59 S11        N/A
$$

MTZ028>042-056>058-201700-
SOUTHCENTRAL AND SOUTHEAST MONTANA
CITY           SKY/WX    TMP DP  RH WIND       PRES   REMARKS
BAKER          SUNNY     57  39  51 SE13      29.98S
BILLINGS       SUNNY     52  30  43 SW16      29.95R
LIVINGSTON     SUNNY     55  28  35 E9        29.98F
MILES CITY     SUNNY     52  39  61 S9        29.93S
* LAUREL APT   SUNNY     52  30  43 S9         N/A
* ROUNDUP APT  SUNNY     46  30  54 S5         N/A
* ALZADA       N/A       55  42  62 E5         N/A
* HYSHAM       N/A       56  34  44 W8         N/A
* LAME DEER    N/A       67  33  28 E3         N/A
* REED POINT   N/A       39  35  86 E2         N/A
* ROSCOE HILL  N/A       62  22  21 SE4        N/A
$$

REGIONAL REPORTS...DAKOTAS
CITY           SKY/WX    TMP DP  RH WIND       PRES   REMARKS
WILLISTON      SUNNY     57  39  51 S6        29.95F
DICKINSON      SUNNY     59  41  51 S18       29.98F
BEACH          N/A       55  39  55 S15G21    29.97S
CROSBY         SUNNY     59  39  48 S15G20    29.93F
TIOGA          SUNNY     57  41  55 S15G21    29.99F
BISMARCK       SUNNY     50  39  66 SE3       30.07F
GRAND FORKS    SUNNY     48  41  77 N5        30.09R
FARGO          SUNNY     52  41  66 N5        30.07S
BUFFALO SD     SUNNY     57  39  51 SE13      29.94F
RAPID CITY     SUNNY     55  43  64 SE10      30.04F
$$

REGIONAL REPORTS...WYOMING/IDAHO/WASHINGTON
CITY           SKY/WX    TMP DP  RH WIND       PRES   REMARKS
GILLETTE       SUNNY     57  37  47 N/A       30.02S
SHERIDAN       SUNNY     54  34  47 N3        29.98R
CODY           SUNNY    N/A N/A N/A N3        30.04R
YELLOWSTONE LA SUNNY     39  30  70 CALM      30.24R
MULLAN PASS    SUNNY     54  30  40 N/A       29.91S
SAND POINT     PTCLDY    43  43 100 CALM      29.82R
SPOKANE        PTCLDY    52  45  77 CALM      29.77R
$$

REGIONAL REPORTS...ALBERTA
CITY           SKY/WX    TMP DP  RH WIND       PRES   REMARKS
CALGARY        PTCLDY    48  34  59 S8        29.69F
LETHBRIDGE     N/A       59  36  42 SW15G23   29.74S
MEDICINE HAT   N/A       57  39  51 S13       29.73S
EDMONTON       PTSUNNY   54  39  57 S3        29.58R
WATERTON GATE  N/A       63  30  29 SW18G28    N/A
CARDSTON       N/A       59  39  48 SE2        N/A
MILK RIVER     N/A       55  34  45 SE2        N/A
$$

REGIONAL REPORTS...SASKATCHEWAN
CITY           SKY/WX    TMP DP  RH WIND       PRES   REMARKS
SWIFT CURRENT  SUNNY     59  39  48 S17       29.78S
MOOSE JAW      PTSUNNY   57  43  60 S15       29.82R
REGINA         SUNNY     52  41  66 S10       29.85F
VAL MARIE      N/A       52  43  72 S1         N/A
ASSINIBOIA     N/A       55  39  55 S3         N/A
CORONACH       N/A       54  41  62 SE9        N/A

$$




USA.gov is the U.S. government's official web portal to all federal, state and local government web resources and services.